owner,sensor,date,latitude,longitude,vertical_datum,direction_of_sea_water_velocity,sea_water_speed,upward_sea_water_velocity,qcFlag 
TABS,ioos:station:wmo:42043:1,2011-10-01T00:00:00Z,28.9818,-94.9186,2.0,288.3013542,20.28606665,-99999.0,'11111222,11111222,99999999' 
TABS,ioos:station:wmo:42043:1,2011-10-01T00:30:00Z,28.9818,-94.9186,2.0,278.4294635,20.05664977,-99999.0,'11111222,11111222,99999999' 
TABS,ioos:station:wmo:42043:1,2011-10-01T01:00:00Z,28.9818,-94.9186,2.0,272.5224977,22.95223301,-99999.0,'11111222,11111222,99999999' 
TABS,ioos:station:wmo:42043:1,2011-10-01T01:30:00Z,28.9818,-94.9186,2.0,263.5629354,22.30057398,-99999.0,'11111222,11111222,99999999' 
TABS,ioos:station:wmo:42043:1,2011-10-01T02:00:00Z,28.9818,-94.9186,2.0,281.2874179,24.52432466,-99999.0,'11111222,11111222,99999999' 
TABS,ioos:station:wmo:42043:1,2011-10-01T02:30:00Z,28.9818,-94.9186,2.0,286.2911542,23.24320331,-99999.0,'11111222,11111222,99999999' 
TABS,ioos:station:wmo:42043:1,2011-10-01T03:00:00Z,28.9818,-94.9186,2.0,291.7437518,23.83586583,-99999.0,'11111222,11111222,99999999' 
TABS,ioos:station:wmo:42043:1,2011-10-01T03:30:00Z,28.9818,-94.9186,2.0,285.1257473,22.0747299,-99999.0,'11111222,11111222,99999999' 
TABS,ioos:station:wmo:42043:1,2011-10-01T04:00:00Z,28.9818,-94.9186,2.0,285.6912487,21.33505332,-99999.0,'11111222,11111222,99999999' 
TABS,ioos:station:wmo:42043:1,2011-10-01T04:30:00Z,28.9818,-94.9186,2.0,277.2876797,19.70919836,-99999.0,'11111222,11111222,99999999' 
TABS,ioos:station:wmo:42043:1,2011-10-01T05:00:00Z,28.9818,-94.9186,2.0,281.6378005,17.49972857,-99999.0,'11111222,11111222,99999999' 
TABS,ioos:station:wmo:42043:1,2011-10-01T05:30:00Z,28.9818,-94.9186,2.0,290.5912718,17.31624093,-99999.0,'11111222,11111222,99999999' 
TABS,ioos:station:wmo:42043:1,2011-10-01T06:00:00Z,28.9818,-94.9186,2.0,283.1603588,17.92062778,-99999.0,'11111222,11111222,99999999' 
TABS,ioos:station:wmo:42043:1,2011-10-01T06:30:00Z,28.9818,-94.9186,2.0,285.8332064,18.87612513,-99999.0,'11111222,11111222,99999999' 
TABS,ioos:station:wmo:42043:1,2011-10-01T07:00:00Z,28.9818,-94.9186,2.0,288.1239987,16.87732503,-99999.0,'11111222,11111222,99999999' 
TABS,ioos:station:wmo:42043:1,2011-10-01T07:30:00Z,28.9818,-94.9186,2.0,283.4297089,19.46215045,-99999.0,'11111222,11111222,99999999' 
TABS,ioos:station:wmo:42043:1,2011-10-01T08:00:00Z,28.9818,-94.9186,2.0,272.0572929,17.831489,-99999.0,'11111222,11111222,99999999' 
TABS,ioos:station:wmo:42043:1,2011-10-01T08:30:00Z,28.9818,-94.9186,2.0,271.5435726,18.56673369,-99999.0,'11111222,11111222,99999999' 
TABS,ioos:station:wmo:42043:1,2011-10-01T09:00:00Z,28.9818,-94.9186,2.0,256.299599,21.49145179,-99999.0,'11111222,11111222,99999999' 
TABS,ioos:station:wmo:42043:1,2011-10-01T09:30:00Z,28.9818,-94.9186,2.0,256.9995037,23.47158495,-99999.0,'11111222,11111222,99999999' 
TABS,ioos:station:wmo:42043:1,2011-10-01T10:00:00Z,28.9818,-94.9186,2.0,249.2707756,26.38821707,-99999.0,'11111222,11111222,99999999' 
TABS,ioos:station:wmo:42043:1,2011-10-01T10:30:00Z,28.9818,-94.9186,2.0,254.95542,29.78070684,-99999.0,'11111222,11111222,99999999' 
TABS,ioos:station:wmo:42043:1,2011-10-01T11:00:00Z,28.9818,-94.9186,2.0,248.881478,29.58708502,-99999.0,'11111222,11111222,99999999' 
TABS,ioos:station:wmo:42043:1,2011-10-01T11:30:00Z,28.9818,-94.9186,2.0,245.3958433,32.92973884,-99999.0,'11111222,11111222,99999999' 
TABS,ioos:station:wmo:42043:1,2011-10-01T12:00:00Z,28.9818,-94.9186,2.0,249.1988706,40.83134703,-99999.0,'11111222,11111222,99999999' 
TABS,ioos:station:wmo:42043:1,2011-10-01T12:30:00Z,28.9818,-94.9186,2.0,249.1375398,40.09886906,-99999.0,'11111222,11111222,99999999' 
TABS,ioos:station:wmo:42043:1,2011-10-01T13:00:00Z,28.9818,-94.9186,2.0,244.6683161,44.0339142,-99999.0,'11111222,11111222,99999999' 
TABS,ioos:station:wmo:42043:1,2011-10-01T13:30:00Z,28.9818,-94.9186,2.0,245.0456245,41.83548016,-99999.0,'11111222,11111222,99999999' 
TABS,ioos:station:wmo:42043:1,2011-10-01T14:00:00Z,28.9818,-94.9186,2.0,244.835563,46.0946678,-99999.0,'11111222,11111222,99999999' 
TABS,ioos:station:wmo:42043:1,2011-10-01T14:30:00Z,28.9818,-94.9186,2.0,247.2246628,46.88555641,-99999.0,'11111222,11111222,99999999' 
TABS,ioos:station:wmo:42043:1,2011-10-01T15:00:00Z,28.9818,-94.9186,2.0,248.8579369,45.8029344,-99999.0,'11111222,11111222,99999999' 
TABS,ioos:station:wmo:42043:1,2011-10-01T15:30:00Z,28.9818,-94.9186,2.0,248.8455419,50.46035771,-99999.0,'11111222,11111222,99999999' 
TABS,ioos:station:wmo:42043:1,2011-10-01T16:00:00Z,28.9818,-94.9186,2.0,244.2973955,49.59713903,-99999.0,'11111222,11111222,99999999' 
TABS,ioos:station:wmo:42043:1,2011-10-01T16:30:00Z,28.9818,-94.9186,2.0,250.6151087,51.52057841,-99999.0,'11111222,11111222,99999999' 
TABS,ioos:station:wmo:42043:1,2011-10-01T17:00:00Z,28.9818,-94.9186,2.0,248.0305265,55.19817569,-99999.0,'11111222,11111222,99999999' 
TABS,ioos:station:wmo:42043:1,2011-10-01T17:30:00Z,28.9818,-94.9186,2.0,249.7979808,52.41436921,-99999.0,'11111222,11111222,99999999' 
TABS,ioos:station:wmo:42043:1,2011-10-01T18:00:00Z,28.9818,-94.9186,2.0,248.7664357,56.54886825,-99999.0,'11111222,11111222,99999999' 
TABS,ioos:station:wmo:42043:1,2011-10-01T18:30:00Z,28.9818,-94.9186,2.0,255.6573229,49.4925257,-99999.0,'11111222,11111222,99999999' 
TABS,ioos:station:wmo:42043:1,2011-10-01T19:00:00Z,28.9818,-94.9186,2.0,250.1751874,53.98963049,-99999.0,'11111222,11111222,99999999' 
TABS,ioos:station:wmo:42043:1,2011-10-01T19:30:00Z,28.9818,-94.9186,2.0,249.5977031,51.77802043,-99999.0,'11111222,11111222,99999999' 
TABS,ioos:station:wmo:42043:1,2011-10-01T20:00:00Z,28.9818,-94.9186,2.0,250.4603807,47.09189845,-99999.0,'11111222,11111222,99999999' 
TABS,ioos:station:wmo:42043:1,2011-10-01T20:30:00Z,28.9818,-94.9186,2.0,252.2306806,44.07247894,-99999.0,'11111222,11111222,99999999' 
TABS,ioos:station:wmo:42043:1,2011-10-01T21:00:00Z,28.9818,-94.9186,2.0,252.9790933,45.60761559,-99999.0,'11111222,11111222,99999999' 
TABS,ioos:station:wmo:42043:1,2011-10-01T21:30:00Z,28.9818,-94.9186,2.0,249.6600673,41.19877789,-99999.0,'11111222,11111222,99999999' 
TABS,ioos:station:wmo:42043:1,2011-10-01T22:00:00Z,28.9818,-94.9186,2.0,251.3870436,36.72054466,-99999.0,'11111222,11111222,99999999' 
TABS,ioos:station:wmo:42043:1,2011-10-01T22:30:00Z,28.9818,-94.9186,2.0,246.9700685,35.60783341,-99999.0,'11111222,11111222,99999999' 
TABS,ioos:station:wmo:42043:1,2011-10-01T23:00:00Z,28.9818,-94.9186,2.0,242.0015548,33.97649923,-99999.0,'11111222,11111222,99999999' 
TABS,ioos:station:wmo:42043:1,2011-10-01T23:30:00Z,28.9818,-94.9186,2.0,243.2200006,29.85171687,-99999.0,'11111222,11111222,99999999' 
TABS,ioos:station:wmo:42043:1,2011-10-02T00:00:00Z,28.9818,-94.9186,2.0,246.1888661,28.75775026,-99999.0,'11111222,11111222,99999999' 
TABS,ioos:station:wmo:42043:1,2011-10-02T00:30:00Z,28.9818,-94.9186,2.0,249.414383,27.55968251,-99999.0,'11111222,11111222,99999999' 
TABS,ioos:station:wmo:42043:1,2011-10-02T01:00:00Z,28.9818,-94.9186,2.0,257.3823815,23.89708769,-99999.0,'11111222,11111222,99999999' 
TABS,ioos:station:wmo:42043:1,2011-10-02T01:30:00Z,28.9818,-94.9186,2.0,250.5456622,27.3833307,-99999.0,'11111222,11111222,99999999' 
TABS,ioos:station:wmo:42043:1,2011-10-02T02:00:00Z,28.9818,-94.9186,2.0,242.5770873,30.18135352,-99999.0,'11111222,11111222,99999999' 
TABS,ioos:station:wmo:42043:1,2011-10-02T02:30:00Z,28.9818,-94.9186,2.0,247.8460134,27.79168941,-99999.0,'11111222,11111222,99999999' 
TABS,ioos:station:wmo:42043:1,2011-10-02T03:00:00Z,28.9818,-94.9186,2.0,242.281431,29.77703981,-99999.0,'11111222,11111222,99999999' 
TABS,ioos:station:wmo:42043:1,2011-10-02T03:30:00Z,28.9818,-94.9186,2.0,245.4426087,29.35523803,-99999.0,'11111222,11111222,99999999' 
TABS,ioos:station:wmo:42043:1,2011-10-02T04:00:00Z,28.9818,-94.9186,2.0,233.1450751,29.94400107,-99999.0,'11111222,11111222,99999999' 
TABS,ioos:station:wmo:42043:1,2011-10-02T04:30:00Z,28.9818,-94.9186,2.0,229.3137556,23.50010213,-99999.0,'11111222,11111222,99999999' 
TABS,ioos:station:wmo:42043:1,2011-10-02T05:00:00Z,28.9818,-94.9186,2.0,240.8854398,26.14314442,-99999.0,'11111222,11111222,99999999' 
TABS,ioos:station:wmo:42043:1,2011-10-02T05:30:00Z,28.9818,-94.9186,2.0,236.3889471,26.03210518,-99999.0,'11111222,11111222,99999999' 
TABS,ioos:station:wmo:42043:1,2011-10-02T06:00:00Z,28.9818,-94.9186,2.0,236.5782501,22.47669905,-99999.0,'11111222,11111222,99999999' 
TABS,ioos:station:wmo:42043:1,2011-10-02T06:30:00Z,28.9818,-94.9186,2.0,250.9950948,24.81245655,-99999.0,'11111222,11111222,99999999' 
TABS,ioos:station:wmo:42043:1,2011-10-02T07:00:00Z,28.9818,-94.9186,2.0,253.6317718,23.84644208,-99999.0,'11111222,11111222,99999999' 
TABS,ioos:station:wmo:42043:1,2011-10-02T07:30:00Z,28.9818,-94.9186,2.0,253.6815307,25.34081293,-99999.0,'11111222,11111222,99999999' 
TABS,ioos:station:wmo:42043:1,2011-10-02T08:00:00Z,28.9818,-94.9186,2.0,244.5248786,23.73792325,-99999.0,'11111222,11111222,99999999' 
TABS,ioos:station:wmo:42043:1,2011-10-02T08:30:00Z,28.9818,-94.9186,2.0,247.2795003,19.34079885,-99999.0,'11111222,11111222,99999999' 
TABS,ioos:station:wmo:42043:1,2011-10-02T09:00:00Z,28.9818,-94.9186,2.0,251.2664604,23.69526746,-99999.0,'11111222,11111222,99999999' 
TABS,ioos:station:wmo:42043:1,2011-10-02T09:30:00Z,28.9818,-94.9186,2.0,237.6224841,16.82570058,-99999.0,'11111222,11111222,99999999' 
TABS,ioos:station:wmo:42043:1,2011-10-02T10:00:00Z,28.9818,-94.9186,2.0,251.7375516,19.91295307,-99999.0,'11111222,11111222,99999999' 
TABS,ioos:station:wmo:42043:1,2011-10-02T10:30:00Z,28.9818,-94.9186,2.0,242.3230416,20.51754859,-99999.0,'11111222,11111222,99999999' 
TABS,ioos:station:wmo:42043:1,2011-10-02T11:00:00Z,28.9818,-94.9186,2.0,246.5337245,24.48497703,-99999.0,'11111222,11111222,99999999' 
TABS,ioos:station:wmo:42043:1,2011-10-02T11:30:00Z,28.9818,-94.9186,2.0,236.689621,22.99837603,-99999.0,'11111222,11111222,99999999' 
TABS,ioos:station:wmo:42043:1,2011-10-02T12:00:00Z,28.9818,-94.9186,2.0,243.445999,22.45906721,-99999.0,'11111222,11111222,99999999' 
TABS,ioos:station:wmo:42043:1,2011-10-02T12:30:00Z,28.9818,-94.9186,2.0,233.7481509,26.49954339,-99999.0,'11111222,11111222,99999999' 
TABS,ioos:station:wmo:42043:1,2011-10-02T13:00:00Z,28.9818,-94.9186,2.0,240.4544978,31.31151865,-99999.0,'11111222,11111222,99999999' 
TABS,ioos:station:wmo:42043:1,2011-10-02T13:30:00Z,28.9818,-94.9186,2.0,233.6590513,30.52730253,-99999.0,'11111222,11111222,99999999' 
TABS,ioos:station:wmo:42043:1,2011-10-02T14:00:00Z,28.9818,-94.9186,2.0,227.8019336,28.92697357,-99999.0,'11111222,11111222,99999999' 
TABS,ioos:station:wmo:42043:1,2011-10-02T14:30:00Z,28.9818,-94.9186,2.0,230.9987365,32.00213274,-99999.0,'11111222,11111222,99999999' 
TABS,ioos:station:wmo:42043:1,2011-10-02T15:00:00Z,28.9818,-94.9186,2.0,238.8033885,30.8511345,-99999.0,'11111222,11111222,99999999' 
TABS,ioos:station:wmo:42043:1,2011-10-02T15:30:00Z,28.9818,-94.9186,2.0,239.5096378,34.43123291,-99999.0,'11111222,11111222,99999999' 
TABS,ioos:station:wmo:42043:1,2011-10-02T16:00:00Z,28.9818,-94.9186,2.0,236.8506318,33.77720089,-99999.0,'11111222,11111222,99999999' 
TABS,ioos:station:wmo:42043:1,2011-10-02T16:30:00Z,28.9818,-94.9186,2.0,241.0951218,33.7435579,-99999.0,'11111222,11111222,99999999' 
TABS,ioos:station:wmo:42043:1,2011-10-02T17:00:00Z,28.9818,-94.9186,2.0,242.3815355,33.82400479,-99999.0,'11111222,11111222,99999999' 
TABS,ioos:station:wmo:42043:1,2011-10-02T17:30:00Z,28.9818,-94.9186,2.0,244.6146705,35.82940831,-99999.0,'11111222,11111222,99999999' 
TABS,ioos:station:wmo:42043:1,2011-10-02T18:00:00Z,28.9818,-94.9186,2.0,244.7689261,30.91978816,-99999.0,'11111222,11111222,99999999' 
TABS,ioos:station:wmo:42043:1,2011-10-02T18:30:00Z,28.9818,-94.9186,2.0,244.5203475,33.98539098,-99999.0,'11111222,11111222,99999999' 
TABS,ioos:station:wmo:42043:1,2011-10-02T19:00:00Z,28.9818,-94.9186,2.0,246.5987805,32.73227154,-99999.0,'11111222,11111222,99999999' 
TABS,ioos:station:wmo:42043:1,2011-10-02T19:30:00Z,28.9818,-94.9186,2.0,248.1760535,33.59786005,-99999.0,'11111222,11111222,99999999' 
TABS,ioos:station:wmo:42043:1,2011-10-02T20:00:00Z,28.9818,-94.9186,2.0,251.0627219,32.84783859,-99999.0,'11111222,11111222,99999999' 
TABS,ioos:station:wmo:42043:1,2011-10-02T20:30:00Z,28.9818,-94.9186,2.0,245.0245335,29.81826621,-99999.0,'11111222,11111222,99999999' 
TABS,ioos:station:wmo:42043:1,2011-10-02T21:00:00Z,28.9818,-94.9186,2.0,252.8984251,27.44335621,-99999.0,'11111222,11111222,99999999' 
TABS,ioos:station:wmo:42043:1,2011-10-02T21:30:00Z,28.9818,-94.9186,2.0,253.0934574,26.7877024,-99999.0,'11111222,11111222,99999999' 
TABS,ioos:station:wmo:42043:1,2011-10-02T22:00:00Z,28.9818,-94.9186,2.0,257.9773305,19.87594526,-99999.0,'11111222,11111222,99999999' 
TABS,ioos:station:wmo:42043:1,2011-10-02T22:30:00Z,28.9818,-94.9186,2.0,253.6256482,26.99485321,-99999.0,'11111222,11111222,99999999' 
TABS,ioos:station:wmo:42043:1,2011-10-02T23:00:00Z,28.9818,-94.9186,2.0,267.0369388,28.82853101,-99999.0,'11111222,11111222,99999999' 
TABS,ioos:station:wmo:42043:1,2011-10-02T23:30:00Z,28.9818,-94.9186,2.0,275.1196869,30.37114749,-99999.0,'11111222,11111222,99999999' 
TABS,ioos:station:wmo:42043:1,2011-10-03T00:00:00Z,28.9818,-94.9186,2.0,269.3442653,30.60200157,-99999.0,'11111222,11111222,99999999' 
TABS,ioos:station:wmo:42043:1,2011-10-03T00:30:00Z,28.9818,-94.9186,2.0,270.7437544,30.83259477,-99999.0,'11111222,11111222,99999999' 
TABS,ioos:station:wmo:42043:1,2011-10-03T01:00:00Z,28.9818,-94.9186,2.0,279.4364356,28.66789842,-99999.0,'11111222,11111222,99999999' 
TABS,ioos:station:wmo:42043:1,2011-10-03T01:30:00Z,28.9818,-94.9186,2.0,277.2516459,26.46163449,-99999.0,'11111222,11111222,99999999' 
TABS,ioos:station:wmo:42043:1,2011-10-03T02:00:00Z,28.9818,-94.9186,2.0,286.5462269,30.40917789,-99999.0,'11111222,11111222,99999999' 
TABS,ioos:station:wmo:42043:1,2011-10-03T02:30:00Z,28.9818,-94.9186,2.0,280.1523811,22.1264186,-99999.0,'11111222,11111222,99999999' 
TABS,ioos:station:wmo:42043:1,2011-10-03T03:00:00Z,28.9818,-94.9186,2.0,278.0367072,22.46056989,-99999.0,'11111222,11111222,99999999' 
TABS,ioos:station:wmo:42043:1,2011-10-03T03:30:00Z,28.9818,-94.9186,2.0,269.7961333,22.53014203,-99999.0,'11111222,11111222,99999999' 
TABS,ioos:station:wmo:42043:1,2011-10-03T04:00:00Z,28.9818,-94.9186,2.0,270.0447502,25.85000774,-99999.0,'11111222,11111222,99999999' 
TABS,ioos:station:wmo:42043:1,2011-10-03T04:30:00Z,28.9818,-94.9186,2.0,266.6675546,24.43130164,-99999.0,'11111222,11111222,99999999' 
TABS,ioos:station:wmo:42043:1,2011-10-03T05:00:00Z,28.9818,-94.9186,2.0,267.1979846,23.52812147,-99999.0,'11111222,11111222,99999999' 
TABS,ioos:station:wmo:42043:1,2011-10-03T05:30:00Z,28.9818,-94.9186,2.0,261.698043,24.10254966,-99999.0,'11111222,11111222,99999999' 
TABS,ioos:station:wmo:42043:1,2011-10-03T06:00:00Z,28.9818,-94.9186,2.0,258.4325759,24.03819669,-99999.0,'11111222,11111222,99999999' 
TABS,ioos:station:wmo:42043:1,2011-10-03T06:30:00Z,28.9818,-94.9186,2.0,260.7479105,25.93740349,-99999.0,'11111222,11111222,99999999' 
TABS,ioos:station:wmo:42043:1,2011-10-03T07:00:00Z,28.9818,-94.9186,2.0,262.0880577,25.20995438,-99999.0,'11111222,11111222,99999999' 
TABS,ioos:station:wmo:42043:1,2011-10-03T07:30:00Z,28.9818,-94.9186,2.0,262.3739727,28.1085841,-99999.0,'11111222,11111222,99999999' 
TABS,ioos:station:wmo:42043:1,2011-10-03T08:00:00Z,28.9818,-94.9186,2.0,258.6981752,26.43253298,-99999.0,'11111222,11111222,99999999' 
TABS,ioos:station:wmo:42043:1,2011-10-03T08:30:00Z,28.9818,-94.9186,2.0,259.1449657,21.71858651,-99999.0,'11111222,11111222,99999999' 
TABS,ioos:station:wmo:42043:1,2011-10-03T09:00:00Z,28.9818,-94.9186,2.0,262.7685624,21.45060372,-99999.0,'11111222,11111222,99999999' 
TABS,ioos:station:wmo:42043:1,2011-10-03T09:30:00Z,28.9818,-94.9186,2.0,253.4997638,22.56939742,-99999.0,'11111222,11111222,99999999' 
TABS,ioos:station:wmo:42043:1,2011-10-03T10:00:00Z,28.9818,-94.9186,2.0,253.351093,22.72252187,-99999.0,'11111222,11111222,99999999' 
TABS,ioos:station:wmo:42043:1,2011-10-03T10:30:00Z,28.9818,-94.9186,2.0,250.7173424,24.37750192,-99999.0,'11111222,11111222,99999999' 
TABS,ioos:station:wmo:42043:1,2011-10-03T11:00:00Z,28.9818,-94.9186,2.0,250.1901273,20.30133986,-99999.0,'11111222,11111222,99999999' 
TABS,ioos:station:wmo:42043:1,2011-10-03T11:30:00Z,28.9818,-94.9186,2.0,246.0754514,25.81822806,-99999.0,'11111222,11111222,99999999' 
TABS,ioos:station:wmo:42043:1,2011-10-03T12:00:00Z,28.9818,-94.9186,2.0,248.8666909,20.69158283,-99999.0,'11111222,11111222,99999999' 
TABS,ioos:station:wmo:42043:1,2011-10-03T12:30:00Z,28.9818,-94.9186,2.0,244.5502829,26.4129703,-99999.0,'11111222,11111222,99999999' 
TABS,ioos:station:wmo:42043:1,2011-10-03T13:00:00Z,28.9818,-94.9186,2.0,243.3012781,26.90891488,-99999.0,'11111222,11111222,99999999' 
TABS,ioos:station:wmo:42043:1,2011-10-03T13:30:00Z,28.9818,-94.9186,2.0,237.0350351,27.16307236,-99999.0,'11111222,11111222,99999999' 
TABS,ioos:station:wmo:42043:1,2011-10-03T14:00:00Z,28.9818,-94.9186,2.0,238.1579229,28.20453864,-99999.0,'11111222,11111222,99999999' 
TABS,ioos:station:wmo:42043:1,2011-10-03T14:30:00Z,28.9818,-94.9186,2.0,243.2336123,30.59854245,-99999.0,'11111222,11111222,99999999' 
TABS,ioos:station:wmo:42043:1,2011-10-03T15:00:00Z,28.9818,-94.9186,2.0,241.9853958,31.82942821,-99999.0,'11111222,11111222,99999999' 
TABS,ioos:station:wmo:42043:1,2011-10-03T15:30:00Z,28.9818,-94.9186,2.0,236.8951349,33.65264477,-99999.0,'11111222,11111222,99999999' 
TABS,ioos:station:wmo:42043:1,2011-10-03T16:00:00Z,28.9818,-94.9186,2.0,227.420252,32.14547247,-99999.0,'11111222,11111222,99999999' 
TABS,ioos:station:wmo:42043:1,2011-10-03T16:30:00Z,28.9818,-94.9186,2.0,240.784521,30.85495908,-99999.0,'11111222,11111222,99999999' 
TABS,ioos:station:wmo:42043:1,2011-10-03T17:00:00Z,28.9818,-94.9186,2.0,245.7606671,37.24333095,-99999.0,'11111222,11111222,99999999' 
TABS,ioos:station:wmo:42043:1,2011-10-03T17:30:00Z,28.9818,-94.9186,2.0,250.3326477,38.09211598,-99999.0,'11111222,11111222,99999999' 
TABS,ioos:station:wmo:42043:1,2011-10-03T18:00:00Z,28.9818,-94.9186,2.0,242.1939865,35.11449843,-99999.0,'11111222,11111222,99999999' 
TABS,ioos:station:wmo:42043:1,2011-10-03T18:30:00Z,28.9818,-94.9186,2.0,248.4330631,33.9788184,-99999.0,'11111222,11111222,99999999' 
TABS,ioos:station:wmo:42043:1,2011-10-03T19:00:00Z,28.9818,-94.9186,2.0,247.7170669,37.37064757,-99999.0,'11111222,11111222,99999999' 
TABS,ioos:station:wmo:42043:1,2011-10-03T19:30:00Z,28.9818,-94.9186,2.0,247.358907,38.03077175,-99999.0,'11111222,11111222,99999999' 
TABS,ioos:station:wmo:42043:1,2011-10-03T20:00:00Z,28.9818,-94.9186,2.0,257.5400439,39.49004938,-99999.0,'11111222,11111222,99999999' 
TABS,ioos:station:wmo:42043:1,2011-10-03T20:30:00Z,28.9818,-94.9186,2.0,258.956709,42.07913497,-99999.0,'11111222,11111222,99999999' 
TABS,ioos:station:wmo:42043:1,2011-10-03T21:00:00Z,28.9818,-94.9186,2.0,266.7225997,40.23579128,-99999.0,'11111222,11111222,99999999' 
TABS,ioos:station:wmo:42043:1,2011-10-03T21:30:00Z,28.9818,-94.9186,2.0,263.8265393,42.77804226,-99999.0,'11111222,11111222,99999999' 
TABS,ioos:station:wmo:42043:1,2011-10-03T22:00:00Z,28.9818,-94.9186,2.0,272.8332059,38.64722629,-99999.0,'11111222,11111222,99999999' 
TABS,ioos:station:wmo:42043:1,2011-10-03T22:30:00Z,28.9818,-94.9186,2.0,274.3954688,36.14629303,-99999.0,'11111222,11111222,99999999' 
TABS,ioos:station:wmo:42043:1,2011-10-03T23:00:00Z,28.9818,-94.9186,2.0,274.9501645,34.76966494,-99999.0,'11111222,11111222,99999999' 
TABS,ioos:station:wmo:42043:1,2011-10-03T23:30:00Z,28.9818,-94.9186,2.0,276.3952138,35.91345291,-99999.0,'11111222,11111222,99999999' 
TABS,ioos:station:wmo:42043:1,2011-10-04T00:00:00Z,28.9818,-94.9186,2.0,282.5494627,33.73594226,-99999.0,'11111222,11111222,99999999' 
TABS,ioos:station:wmo:42043:1,2011-10-04T00:30:00Z,28.9818,-94.9186,2.0,277.8530249,28.32561562,-99999.0,'11111222,11111222,99999999' 
TABS,ioos:station:wmo:42043:1,2011-10-04T01:00:00Z,28.9818,-94.9186,2.0,277.6858062,31.70479459,-99999.0,'11111222,11111222,99999999' 
TABS,ioos:station:wmo:42043:1,2011-10-04T01:30:00Z,28.9818,-94.9186,2.0,278.3300315,31.26986569,-99999.0,'11111222,11111222,99999999' 
TABS,ioos:station:wmo:42043:1,2011-10-04T02:00:00Z,28.9818,-94.9186,2.0,275.3288496,28.64377768,-99999.0,'11111222,11111222,99999999' 
TABS,ioos:station:wmo:42043:1,2011-10-04T02:30:00Z,28.9818,-94.9186,2.0,278.2414108,26.30159311,-99999.0,'11111222,11111222,99999999' 
TABS,ioos:station:wmo:42043:1,2011-10-04T03:00:00Z,28.9818,-94.9186,2.0,268.8864925,24.19456551,-99999.0,'11111222,11111222,99999999' 
TABS,ioos:station:wmo:42043:1,2011-10-04T03:30:00Z,28.9818,-94.9186,2.0,270.3224324,24.91039341,-99999.0,'11111222,11111222,99999999' 
TABS,ioos:station:wmo:42043:1,2011-10-04T04:00:00Z,28.9818,-94.9186,2.0,269.8524789,23.37007702,-99999.0,'11111222,11111222,99999999' 
TABS,ioos:station:wmo:42043:1,2011-10-04T04:30:00Z,28.9818,-94.9186,2.0,266.1272952,24.8767924,-99999.0,'11111222,11111222,99999999' 
TABS,ioos:station:wmo:42043:1,2011-10-04T05:00:00Z,28.9818,-94.9186,2.0,260.4117685,22.51449533,-99999.0,'11111222,11111222,99999999' 
TABS,ioos:station:wmo:42043:1,2011-10-04T05:30:00Z,28.9818,-94.9186,2.0,261.1945459,22.9302355,-99999.0,'11111222,11111222,99999999' 
TABS,ioos:station:wmo:42043:1,2011-10-04T06:00:00Z,28.9818,-94.9186,2.0,259.7864563,24.58962383,-99999.0,'11111222,11111222,99999999' 
TABS,ioos:station:wmo:42043:1,2011-10-04T06:30:00Z,28.9818,-94.9186,2.0,254.3114645,26.92294189,-99999.0,'11111222,11111222,99999999' 
TABS,ioos:station:wmo:42043:1,2011-10-04T07:00:00Z,28.9818,-94.9186,2.0,247.8393118,22.82611881,-99999.0,'11111222,11111222,99999999' 
TABS,ioos:station:wmo:42043:1,2011-10-04T07:30:00Z,28.9818,-94.9186,2.0,243.1873612,20.72854312,-99999.0,'11111222,11111222,99999999' 
TABS,ioos:station:wmo:42043:1,2011-10-04T08:00:00Z,28.9818,-94.9186,2.0,243.4816694,21.77036518,-99999.0,'11111222,11111222,99999999' 
TABS,ioos:station:wmo:42043:1,2011-10-04T08:30:00Z,28.9818,-94.9186,2.0,249.3840574,20.27856011,-99999.0,'11111222,11111222,99999999' 
TABS,ioos:station:wmo:42043:1,2011-10-04T09:00:00Z,28.9818,-94.9186,2.0,238.9250361,21.27272432,-99999.0,'11111222,11111222,99999999' 
TABS,ioos:station:wmo:42043:1,2011-10-04T09:30:00Z,28.9818,-94.9186,2.0,249.9792781,18.40201348,-99999.0,'11111222,11111222,99999999' 
TABS,ioos:station:wmo:42043:1,2011-10-04T10:00:00Z,28.9818,-94.9186,2.0,246.9890435,16.80731388,-99999.0,'11111222,11111222,99999999' 
TABS,ioos:station:wmo:42043:1,2011-10-04T10:30:00Z,28.9818,-94.9186,2.0,242.0450112,19.73239468,-99999.0,'11111222,11111222,99999999' 
TABS,ioos:station:wmo:42043:1,2011-10-04T11:00:00Z,28.9818,-94.9186,2.0,236.406034,19.77231651,-99999.0,'11111222,11111222,99999999' 
TABS,ioos:station:wmo:42043:1,2011-10-04T11:30:00Z,28.9818,-94.9186,2.0,251.9488055,18.39538257,-99999.0,'11111222,11111222,99999999' 
TABS,ioos:station:wmo:42043:1,2011-10-04T12:00:00Z,28.9818,-94.9186,2.0,247.962647,16.71086473,-99999.0,'11111222,11111222,99999999' 
TABS,ioos:station:wmo:42043:1,2011-10-04T12:30:00Z,28.9818,-94.9186,2.0,241.6594331,15.73605414,-99999.0,'11111222,11111222,99999999' 
TABS,ioos:station:wmo:42043:1,2011-10-04T13:00:00Z,28.9818,-94.9186,2.0,234.2361984,23.30434509,-99999.0,'11111222,11111222,99999999' 
TABS,ioos:station:wmo:42043:1,2011-10-04T13:30:00Z,28.9818,-94.9186,2.0,239.6381812,23.16730886,-99999.0,'11111222,11111222,99999999' 
TABS,ioos:station:wmo:42043:1,2011-10-04T14:00:00Z,28.9818,-94.9186,2.0,241.5368349,23.22759781,-99999.0,'11111222,11111222,99999999' 
TABS,ioos:station:wmo:42043:1,2011-10-04T14:30:00Z,28.9818,-94.9186,2.0,233.43108,30.04441545,-99999.0,'11111222,11111222,99999999' 
TABS,ioos:station:wmo:42043:1,2011-10-04T15:00:00Z,28.9818,-94.9186,2.0,237.7425975,26.0624193,-99999.0,'11111222,11111222,99999999' 
TABS,ioos:station:wmo:42043:1,2011-10-04T15:30:00Z,28.9818,-94.9186,2.0,241.0043306,28.1595348,-99999.0,'11111222,11111222,99999999' 
TABS,ioos:station:wmo:42043:1,2011-10-04T16:00:00Z,28.9818,-94.9186,2.0,235.0581855,29.71683025,-99999.0,'11111222,11111222,99999999' 